Location: Endfield
(51.6667°N, 0.0667°W)
Time: 13:10:27
(UTC+00:00)

Meteor 1-27 Rocket - Pass Details

Date: 19 May 2024
Orbit: 829 x 909 km, 81.3° (Epoch: 16 June)

Event Time Altitude Azimuth Distance (km) Brightness Sun altitude
Exits shadow 23:04:36 16° 214° (SW) 2,029 5.3 -17.4°
Maximum altitude 23:08:52 54° 288° (WNW) 1,009 4.2 -17.5°
Drops below altitude 10° 23:14:18 10° 6° (N) 2,457 7.3 -17.7°
Sets 23:16:47 0° 11° (N) 3,402 8.2 -17.8°
